This is the latest recevied weather packets stored in our database for station/object KJ5IIV. If no packets are shown the sender has not sent any weather packets the latest 10 day(s).
| Time | Temp. | Humidity | Pressure | Rain* | Wind** | Luminosity | Snow |
|---|---|---|---|---|---|---|---|
| 1778161776 | 15.56° C | 75% | 1020.1 hPa | 0 mm | - | 133 W/m² | - |
| 1778161472 | 15° C | 79% | 1020 hPa | 0 mm | - | 397 W/m² | - |
| 1778161168 | 14.44° C | 81% | 1019.7 hPa | 0 mm | - | 370 W/m² | - |
| 1778160865 | 14.44° C | 82% | 1019.9 hPa | 0 mm | - | 488 W/m² | - |
| 1778160564 | 14.44° C | 83% | 1019.8 hPa | 0 mm | - | 316 W/m² | - |
| 1778160259 | 14.44° C | 86% | 1019.8 hPa | 0 mm | - | 266 W/m² | - |
| 1778159956 | 13.33° C | 88% | 1019.8 hPa | 0 mm | - | 224 W/m² | - |
| 1778159653 | 12.78° C | 89% | 1020 hPa | 0 mm | - | 148 W/m² | - |
| 1778159350 | 12.78° C | 91% | 1019.9 hPa | 0 mm | - | 146 W/m² | - |
| 1778159047 | 12.22° C | 93% | 1019.8 hPa | 0 mm | - | 223 W/m² | - |
| 1778158746 | 12.22° C | 94% | 1019.7 hPa | 0 mm | - | 96 W/m² | - |
| 1778158443 | 11.67° C | 95% | 1019.6 hPa | 0 mm | - | 89 W/m² | - |
| 1778158140 | 11.67° C | 95% | 1019.5 hPa | 0 mm | - | 98 W/m² | - |
| 1778157836 | 11.67° C | 96% | 1019.3 hPa | 0 mm | - | 105 W/m² | - |
| 1778157535 | 11.67° C | 96% | 1019.6 hPa | 0 mm | - | 84 W/m² | - |
| 1778157231 | 11.11° C | 96% | 1019.4 hPa | 0 mm | - | 59 W/m² | - |
| 1778156928 | 11.11° C | 96% | 1019.2 hPa | 0 mm | - | 58 W/m² | - |
| 1778156623 | 11.11° C | 96% | 1019.3 hPa | 0 mm | - | 47 W/m² | - |
| 1778156320 | 11.11° C | 96% | 1019.4 hPa | 0 mm | - | 52 W/m² | - |
| 1778156015 | 11.11° C | 97% | 1019.3 hPa | 0 mm | - | 57 W/m² | - |
| 1778155712 | 10.56° C | 97% | 1019 hPa | 0 mm | - | 57 W/m² | - |
| 1778155409 | 10.56° C | 97% | 1018.7 hPa | 0 mm | - | 49 W/m² | - |
| 1778155105 | 10.56° C | 97% | 1018.6 hPa | 0 mm | - | 29 W/m² | - |
| 1778154800 | 10.56° C | 97% | 1018.5 hPa | 0 mm | - | 25 W/m² | - |
| 1778154497 | 10.56° C | 97% | 1018.2 hPa | 0 mm | - | 15 W/m² | - |
* Rain latest hour (hover to see other rain measurements)
** Current wind speed in m/s (hover to see current wind gust speed)